Powrót do katalogu

STARLINK-37288

AktywnyŁącznośćVLEO
NORAD 68551·PAYLOAD·🇺🇸 United States

Wystrzelony Apr 2, 2026 z Cape Canaveral Space Force Station

Loading…

Następne Przeloty (najbliższe 24 godziny)

TLE

ŚwieżeSource: CelesTrak SupGP

Epoka: Sep 14, 2026, 21:44 UTC

1 68551C 26070K   26257.90604167  .00010430  00000+0  30807-3 0  2570
2 68551  53.1579 199.9003 0001465  94.3155  67.1521 15.34394498    14

Śledź STARLINK-37288 w czasie rzeczywistym z AllMySat

Download on the App Store